Location: Archemont
(49.1579°N, 1.7598°E)
Time: 14:03:33
(UTC+00:00)

Cosmos 2333 - Pass Details

Date: 03 February 2023
Orbit: 828 x 867 km, 70.9° (Epoch: 30 March)

Event Time Altitude Azimuth Distance (km) Brightness Sun altitude
Rises 18:32:57 0° 185° (S) 3,359 7.5 -16.6°
Reaches altitude 10° 18:35:27 10° 179° (S) 2,433 6.6 -17.0°
Maximum altitude 18:40:42 44° 109° (ESE) 1,149 4.5 -17.8°
Enters shadow 18:43:17 27° 55° (NE) 1,569 5.1 -18.3°
